Location: Lourdes
(43.1000°N, 0.0500°W)
Time: 11:01:28
(UTC+00:00)

Cosmos 1151 Rocket - Pass Details

Date: 15 April 2021
Orbit: 593 x 614 km, 82.5° (Epoch: 09 May)

Event Time Altitude Azimuth Distance (km) Brightness Sun altitude
Exits shadow 00:08:58 14° 13° (NNE) 1,696 5.9 -37.1°
Drops below altitude 10° 00:09:36 10° 12° (NNE) 1,949 6.3 -37.1°
Sets 00:11:50 0° 11° (N) 2,860 7.4 -37.1°
